Location: Unspecified
(45.1330°N, 0.0000°E)
Time: 07:54:37
(UTC+00:00)

NOAA 19 - Visible Passes

Search period start: 04 April 2026 00:00
Search period end: 14 April 2026 00:00
Orbit: 838 x 857 km, 99.0° (Epoch: 29 March)

Date Brightness Start Highest point End Pass type
(mag) Time Alt. Az. Time Alt. Az. Time Alt. Az.
4 Apr 5.8 20:45:56 38° ENE 20:46:24 38° ENE 20:51:29 10° N visible
4 Apr 6.6 22:27:51 32° WNW 22:27:51 32° WNW 22:32:02 10° NNW visible
5 Apr 6.1 20:32:56 29° E 20:33:45 31° ENE 20:38:33 10° N visible
5 Apr 6.2 22:14:51 41° W 22:14:51 41° W 22:19:28 10° NNW visible
6 Apr 6.4 20:19:54 23° E 20:21:08 25° ENE 20:25:32 10° N visible
6 Apr 5.8 22:01:49 53° W 22:01:49 53° W 22:06:50 10° NNW visible
7 Apr 6.7 20:06:54 18° E 20:08:32 20° ENE 20:12:27 10° NNE visible
7 Apr 5.4 21:48:49 68° W 21:48:49 68° W 21:54:09 10° NNW visible
8 Apr 6.9 19:53:52 13° E 19:55:58 16° ENE 19:59:15 10° NNE visible
8 Apr 5.1 21:35:48 87° WSW 21:35:50 87° WSW 21:41:25 10° NNW visible
8 Apr 7.7 23:17:44 12° W 23:17:44 12° W 23:19:33 10° WNW visible
9 Apr 7.2 19:41:00 10° E 19:43:25 13° NE 19:45:50 10° NNE visible
9 Apr 5.1 21:22:47 72° ESE 21:23:05 75° ENE 21:28:39 10° N visible
9 Apr 7.4 23:04:43 16° W 23:04:43 16° W 23:07:43 10° NW visible
10 Apr 7.3 19:30:13 10° ENE 19:30:53 10° NE 19:31:34 10° NE visible
10 Apr 5.3 21:09:47 56° E 21:10:22 59° ENE 21:15:49 10° N visible
10 Apr 7.1 22:51:42 21° W 22:51:42 21° W 22:55:31 10° NW visible
11 Apr 5.6 20:56:46 43° E 20:57:40 46° ENE 21:02:57 10° N visible
11 Apr 6.8 22:38:42 27° W 22:38:42 27° W 22:43:09 10° NW visible
12 Apr 5.9 20:43:45 33° E 20:45:01 37° ENE 20:50:03 10° N visible
12 Apr 6.4 22:25:41 34° W 22:25:41 34° W 22:30:39 10° NNW visible
13 Apr 6.2 20:30:45 25° E 20:32:22 30° ENE 20:37:06 10° N visible
13 Apr 6.0 22:12:41 44° WSW 22:12:47 44° W 22:18:04 10° NNW visible
